OBJECT AA, 47437

Orbit data source: Space-Track

You're viewing an Uncataloged Satellite

Recently launched and/or uncataloged satellites may have evolving metadata. Metadata may include but not limited to: Owner, Maufacturer, Bus, Motor, and Mission.

OBJECT AA, 47437 is a satellite in SSO that was launched on Sun, 24 Jan 2021 UTC launched from the Air Force Eastern Test Range (AFETR). Unknown objects in Earth's orbit typically refer to objects detected orbiting the Earth but have not yet been identified or cataloged. These objects could be anything from previously untracked satellites, spent rocket stages, debris from satellite collisions, or even natural meteoroids temporarily captured by Earth's gravity.

Loading next visibility...
Identifier
47437, 2021-006AA
Orbit
SSO
Country
Flag of TBDTBD
Related business
Manufacturer
SpaceX/Seattle
Mission
Spacecraft
Bus & Motor
Unknown
Mass
~100 kg wet, ~100 kg dry
Launch date (UTC)
2021-01-24 (5 years ago)
Launch vehicle
Unknown
Launch site
Air Force Eastern Test Range (AFETR)
Object type
Unknown
Shape & HBR
Cyl, Unknown HBR
Radar Cross Section
0.110 m², Medium (>0.1 m² and < 1m²)

Expand to show TLE details & history
Last TLE update: 21 hours ago

TLE from 21 hours ago
0 OBJECT AA
1 47437U 21006AA  25341.24434409  .00008560  00000-0  30856-3 0  9993
2 47437  97.2521  22.1216 0009675 157.2512 202.9159 15.28736470269971
Epoch: 2025-12-07T05:51Z
TLE epoch observation values (Epoch: 2025-12-07T05:51:51.329Z)
Latitude
-0.00001°
Longitude
-142.10278°
Altitude
488.809 km
Speed
7.617 km/s
True Right ascension
01h 28m 29s
True Declination
0° 00' 00"
Sunlit
Object was in full shadow at epoch
Visualization orbit readout
Latitude
Unknown
Longitude
Unknown
Altitude
Unknown
Speed
Unknown
Apparent Right ascension
Unknown
Apparent Declination
Unknown
Sunlit
N/A
Visualization observer readout
Local Sidereal Time
01:14:56
Azimuth
Unknown
Elevation
Unknown
Doppler factor
Unknown
Orbital elements
Apogee altitude
483.168 km
Perigee altitude
469.904 km
Semi-major axis
6,854.673 km
Eccentricity
0.00097
Inclination
97.2521°
RAAN
22.1216°
Arg. of periapsis
157.2512°
True anomaly
202.87278°
Mean anomaly
202.9159°
Eccentric anomaly
202.89433°
Mean motion
3.8244 °/min
Orbital period
94.13 mins
BSTAR
0.00030856
Loading maneuver chart data...
Computing Atmospheric mass density...

Documentation

Showing up to 5 results
|